This is the latest recevied weather packets stored in our database for station/object WA6ODQ-13. If no packets are shown the sender has not sent any weather packets the latest 10 day(s).
| Time | Temp. | Humidity | Pressure | Rain* | Wind** | Luminosity | Snow |
|---|---|---|---|---|---|---|---|
| 1788106143 | 17.78° C | 75% | 1011.9 hPa | 0 mm | - | 43 W/m² | - |
| 1788105839 | 17.78° C | 76% | 1012.1 hPa | 0 mm | - | 39 W/m² | - |
| 1788105534 | 17.22° C | 76% | 1011.9 hPa | 0 mm | - | 46 W/m² | - |
| 1788105231 | 17.22° C | 77% | 1011.9 hPa | 0 mm | - | 50 W/m² | - |
| 1788104926 | 17.22° C | 77% | 1012.1 hPa | 0 mm | - | 46 W/m² | - |
| 1788104621 | 16.67° C | 78% | 1011.8 hPa | 0 mm | - | 36 W/m² | - |
| 1788104318 | 16.67° C | 79% | 1012 hPa | 0 mm | - | 35 W/m² | - |
| 1788104013 | 16.67° C | 80% | 1012.1 hPa | 0 mm | - | 34 W/m² | - |
| 1788103712 | 16.11° C | 81% | 1012 hPa | 0 mm | - | 33 W/m² | - |
| 1788103407 | 16.11° C | 82% | 1012.2 hPa | 0 mm | - | 32 W/m² | - |
| 1788103101 | 16.11° C | 82% | 1012.1 hPa | 0 mm | - | 32 W/m² | - |
| 1788102800 | 15.56° C | 83% | 1012 hPa | 0 mm | - | 31 W/m² | - |
| 1788102496 | 15.56° C | 84% | 1011.8 hPa | 0 mm | - | 30 W/m² | - |
| 1788102195 | 15.56° C | 84% | 1011.8 hPa | 0 mm | - | 29 W/m² | - |
| 1788101889 | 15° C | 85% | 1011.7 hPa | 0 mm | - | 29 W/m² | - |
| 1788101585 | 15° C | 85% | 1011.8 hPa | 0 mm | - | 28 W/m² | - |
| 1788101280 | 15° C | 86% | 1012 hPa | 0 mm | - | 27 W/m² | - |
| 1788100976 | 15° C | 86% | 1012 hPa | 0 mm | - | 25 W/m² | - |
| 1788100672 | 15° C | 85% | 1012 hPa | 0 mm | - | 25 W/m² | - |
| 1788100371 | 15° C | 85% | 1011.8 hPa | 0 mm | - | 23 W/m² | - |
| 1788100065 | 14.44° C | 85% | 1011.6 hPa | 0 mm | - | 22 W/m² | - |
| 1788099760 | 14.44° C | 87% | 1011.5 hPa | 0 mm | - | 20 W/m² | - |
| 1788099456 | 14.44° C | 86% | 1011.5 hPa | 0 mm | - | 19 W/m² | - |
| 1788099151 | 14.44° C | 86% | 1011.5 hPa | 0 mm | - | 17 W/m² | - |
| 1788098845 | 13.89° C | 86% | 1011.3 hPa | 0 mm | - | 16 W/m² | - |
* Rain latest hour (hover to see other rain measurements)
** Current wind speed in m/s (hover to see current wind gust speed)